Location: Chippewa Lake
(41.0698°N, 81.9010°W)
Time: 23:42:41
(UTC+00:00)

IDEFIX/ARIANE 42P - Pass Details

Date: 09 May 2021
Orbit: 786 x 802 km, 98.4° (Epoch: 24 June)

Event Time Altitude Azimuth Distance (km) Brightness Sun altitude
Rises 08:20:44 0° 11° (NNE) 3,315 6.8 -18.6°
Reaches altitude 10° 08:23:04 10° 11° (N) 2,383 5.9 -18.3°
Maximum altitude 08:28:20 80° 285° (WNW) 817 2.5 -17.6°
Enters shadow 08:31:26 25° 201° (SSW) 1,552 3.6 -17.1°
